144  
ASUS44 KSHV 031010  
RWRSHV  
 
THE FOUR STATE AREA WEATHER ROUNDUP  
NATIONAL WEATHER SERVICE SHREVEPORT LA  
500 AM CDT WED JUN 03 2020  
 
NOTE: "FAIR" INDICATES FEW OR NO CLOUDS BELOW 12000 FEET  
WITH NO SIGNIFICANT WEATHER AND/OR S TO VISIBILITY
.  
 
!LAZ001-LAZ014-TXZ097-031100  
SHREVEPORT...MONROE...TEXARKANA RADIOS  
 
CITY SKY/WX TMP DP RH WIND PRES REMARKS
 
SHREVEPORT MOCLDY 72 66 81 S5 30.00F  
MONROE CLOUDY 73 71 93 CALM 30.02R  
NATCHITOCHES MOCLDY 69 69 99 CALM 30.01S  
TEXARKANA PTCLDY 70 66 87 SW5 30.01S  

 
 
!LAZ001-LAZ014-TXZ097-031100  
OTHER LOCATIONS...  
 
CITY SKY/WX TMP DP RH WIND PRES REMARKS
 
DOWNTOWN SHV MOCLDY 75 66 73 CALM 30.01S  
BOSSIER CITY CLOUDY 70 66 88 S3 30.00S  
RUSTON MOCLDY 67 66 94 CALM 30.05S  
LITTLE ROCK MOCLDY 71 67 87 CALM 30.01R  
EL DORADO PTCLDY 67 66 97 CALM 30.01F  
JACKSON CLOUDY 74 71 91 S3 30.05R  
NEW ORLEANS MOCLDY 80 76 87 E5 30.01S  
HOUSTON PTCLDY 73 70 90 CALM 29.98F  
LUFKIN MOCLDY 72 69 90 CALM 30.01S  
TYLER MOCLDY 73 68 84 S7 30.01S  
DAL FT WORTH PTCLDY 75 69 81 S7 29.97S  

 
 
!TXZ136-TXZ165-031100  
TYLER...LUFKIN RADIOS  
 
CITY SKY/WX TMP DP RH WIND PRES REMARKS
 
TYLER MOCLDY 73 68 84 S7 30.01S  
GILMER PTSUNNY 72 67 84 CALM 30.01S  
LONGVIEW MOCLDY 73 67 81 S6 30.00S  
LUFKIN MOCLDY 72 69 90 CALM 30.01S  

 
 
!TXZ136-TXZ165-031100  
OTHER LOCATIONS...  
 
CITY SKY/WX TMP DP RH WIND PRES REMARKS
 
NACOGDOCHES MOCLDY 71 69 93 CALM 30.02S  
BEAUMONT CLEAR 73 73 100 CALM 29.98S  
HOUSTON PTCLDY 73 70 90 CALM 29.98F  
COLLEGE STN PTCLDY 72 68 87 CALM 29.99F  
AUSTIN PTCLDY 72 70 93 SW5 30.00F  
DAL FT WORTH PTCLDY 75 69 81 S7 29.97S  
TEXARKANA PTCLDY 70 66 87 SW5 30.01S  
SHREVEPORT MOCLDY 72 66 81 S5 30.00F  
FORT POLK CLOUDY 70 69 94 NW5 30.00S  
LAKE CHARLES PTCLDY 73 73 100 CALM 29.99S FOG  

 
 
 
CLICK HERE TO GO TO PREVIOUS BULLETINS.

The Nexlab LA Page
The Nexlab TX Page
The Nexlab AR Page
The Nexlab OK Page Main Text Page